Pagina principală
METAR-TAF:

METAR-TAF

Aeroporturi :

La Argelia

Loja, Ecuador

Latitudine: 03-59-45S, longitudine: 079-22-19W, elevație: 1236 m

Observații meteo curente

Raportul a fost făcut în urmă cu 10 ore și 12 de minute, la 23:00 UTC
Vânt 15 kt de la Vest
Temperatură 25°C
Umiditate 61%
Presiune 1016 hPa
Vizibilitate de 10 km sau mai mult
Nori fragmentați la o înălțime de 4000 picior

METAR: SECA 132300Z 28015KT 9999 BKN040 25/17 Q1016 RMK A3001

Ora: 04:12 (09:12 UTC)


TAF: lipsă

Observații și prognoze meteo pentru peste 4.000 de aeroporturi (rapoarte METAR și TAF).

Stațiile disponibile sunt reprezentate pe hartă prin puncte galbene și roșii.

Țineți indicatorul mouse-ului pe punctul dorit pentru a vedea denumirea stației.

Apoi, faceți clic pentru a vedea observațiile și prognozele meteorologice.

Pentru a schimba harta: Pentru mărire, faceți clic pe butoanele verzi cu cruce neagră; pentru micșorare, pe butonul verde cu o liniuță; pentru hărți învecinate, pe săgețile verzi.


METAR-TAF: